Wind_Speed
6 5 19 22 13 2 5 5 6 4 5 6 11 10 15 16 13 15 17 17 19 19 21 24 26 28 28 30 33 35 35 35 31 30 26 23 21 16 15 13 14 16 16 13
4 14 14 8 5 5 7 3 4 4 3 6 6 14 10 18 22 20 18 19 19 17 18 23 26 30 31 33 36 37 37 37 35 33 30 26 24 19 16 16 15 16 16 14
7 6 12 13 7 11 8 16 6 3 2 7 4 5 6 12 8 13 15 17 16 20 21 19 25 29 30 32 36 39 40 39 38 35 31 25 23 22 19 16 15 16 17 16
8 8 10 13 15 11 9 15 12 7 2 4 8 5 5 8 17 17 18 18 17 20 19 17 23 27 32 34 34 38 41 41 39 37 33 32 27 24 25 23 18 16 12 17
6 7 10 13 15 14 11 9 14 12 6 4 4 3 6 11 12 19 21 21 20 19 21 22 24 31 31 29 34 36 40 42 40 40 37 35 31 25 24 25 22 19 17 15
6 3 3 15 13 16 6 1 4 3 4 9 12 7 5 7 16 18 20 20 21 21 22 21 30 31 31 32 31 33 38 41 43 42 41 39 36 33 27 25 25 25 22 19
7 4 2 5 2 14 13 10 2 3 5 13 11 12 13 5 12 18 21 23 22 21 20 21 21 26 31 33 32 32 36 40 40 41 42 42 41 39 38 33 31 31 29 24
5 2 3 4 7 8 14 10 6 8 4 12 6 8 7 20 10 12 18 18 16 18 19 21 22 29 32 34 36 35 37 38 39 42 43 42 42 41 39 35 30 30 31 29
3 6 7 5 4 2 7 17 11 4 1 1 9 5 7 6 19 18 14 11 18 22 22 24 20 31 33 35 38 38 38 38 41 44 44 41 42 42 41 39 33 29 28 28
3 5 3 8 6 10 8 3 7 3 7 5 3 7 10 11 10 13 7 13 17 21 23 18 20 30 36 39 39 39 42 42 42 43 41 41 42 44 44 41 37 32 29 26
4 3 6 6 5 4 4 9 5 7 8 8 2 6 6 12 15 15 13 15 16 19 22 22 21 31 36 36 38 40 41 39 37 40 41 38 40 41 42 43 41 36 32 28
2 1 5 9 13 8 5 5 7 8 12 6 4 7 4 10 9 12 16 16 17 20 22 21 20 25 31 37 39 41 40 39 40 41 41 40 40 40 41 43 43 39 35 30
5 2 4 8 2 2 0 4 4 5 3 15 13 7 6 6 7 9 10 8 13 17 16 17 14 18 26 33 37 40 39 39 39 36 37 36 35 36 41 43 43 41 37 35
5 1 6 7 1 5 7 14 10 2 5 6 14 8 8 11 8 7 8 7 9 11 17 17 15 19 26 32 36 37 37 38 37 36 36 36 37 41 42 42 41 40 38 37
4 4 7 18 21 14 14 18 17 6 8 4 6 10 9 11 11 9 6 5 6 9 11 17 19 19 19 26 32 33 36 37 38 36 35 37 37 38 39 40 42 40 39 39
6 4 8 17 14 16 16 17 16 17 19 12 15 12 4 5 3 8 6 5 8 12 16 20 22 21 21 28 34 36 36 37 37 36 37 36 36 38 40 41 40 39 38 39
9 4 3 6 3 7 6 18 12 5 9 4 6 1 6 2 6 7 9 9 11 12 11 19 22 22 21 33 35 38 37 36 37 36 36 35 36 37 37 37 35 37 39 38
8 5 3 4 3 4 4 6 14 17 13 14 11 13 4 7 5 6 11 11 13 14 11 14 17 19 32 36 34 30 34 36 37 34 31 31 33 33 32 33 34 33 33 36
7 4 4 3 2 4 6 6 5 6 7 15 13 15 10 6 2 5 16 16 12 13 11 6 16 17 23 28 32 32 31 32 31 30 32 35 36 33 33 33 32 33 31 32
9 5 6 2 3 7 5 13 5 5 6 15 14 14 13 4 6 6 17 14 14 13 11 6 18 23 24 25 31 30 29 30 31 35 34 32 33 34 34 35 34 33 33 31
5 4 12 7 4 1 14 16 4 5 1 11 12 11 11 8 2 5 11 15 13 14 18 20 20 14 16 32 33 25 26 29 27 26 29 31 34 35 34 30 31 30 30 28
4 4 3 2 6 2 18 6 6 3 2 8 9 9 9 9 9 10 13 16 19 19 21 26 21 20 16 16 25 20 19 22 27 30 32 33 35 34 33 35 32 32 31 28
3 3 1 1 3 8 10 4 6 4 5 5 6 8 8 9 11 11 12 14 15 17 21 26 23 25 29 28 21 19 5 12 19 25 28 29 30 32 31 31 27 25 27 26
6 6 1 4 4 9 3 8 8 6 7 5 5 7 7 8 10 9 10 11 11 14 18 24 28 27 26 29 31 24 20 18 15 14 19 23 21 25 27 27 26 25 24 23
2 5 4 4 7 6 7 10 9 11 9 8 4 6 10 10 10 6 7 9 8 12 19 22 22 22 23 28 30 28 23 18 20 16 13 12 11 16 23 26 26 26 25 26
9 6 5 3 9 6 8 12 15 11 8 8 8 10 9 9 9 9 6 6 8 11 18 20 22 24 27 28 27 26 24 20 16 15 12 9 5 4 9 15 20 26 27 26
Wind_Direction
178 160 207 207 208 116 167 196 216 212 204 141 201 222 178 177 180 185 185 189 195 197 190 191 190 192 191 199 203 204 205 205 204 206 211 217 222 225 226 213 215 218 220 223
126 221 221 189 192 185 232 240 252 289 226 176 214 232 178 179 197 193 185 191 199 190 195 194 192 191 194 195 204 206 208 207 206 208 211 214 214 217 214 211 214 216 217 220
176 234 171 185 184 196 219 229 227 209 351 211 136 292 179 199 189 196 203 210 195 197 192 194 194 194 195 196 198 206 210 209 210 211 213 215 218 220 214 206 206 210 222 227
233 234 197 197 204 174 213 216 239 254 320 218 167 259 234 184 197 202 204 205 200 198 199 195 196 198 200 202 200 205 211 211 212 213 214 214 209 209 218 213 207 208 220 225
222 197 201 207 211 182 236 162 206 230 212 298 226 197 257 186 202 209 207 208 206 202 199 197 201 202 203 200 202 203 209 213 214 216 216 216 214 221 222 224 221 218 223 228
241 239 198 221 212 201 175 332 136 117 138 236 226 213 255 191 210 214 213 211 204 202 203 201 202 200 203 205 204 203 205 210 215 218 219 220 217 220 223 224 227 226 228 227
335 245 179 248 223 200 180 157 267 228 201 234 207 223 233 197 220 210 204 209 206 201 203 200 195 198 201 200 203 201 204 206 210 213 219 218 220 225 230 232 230 229 229 228
359 275 22 12 196 200 202 180 170 196 192 228 182 225 238 225 239 218 215 210 198 199 205 202 200 199 199 203 201 198 201 204 204 210 215 220 221 225 230 234 234 233 231 232
27 274 328 287 331 2 211 210 194 99 240 178 202 243 295 243 220 229 222 178 195 199 201 204 197 201 200 200 201 200 201 207 203 209 214 216 221 223 228 234 234 235 232 231
161 291 284 310 310 222 196 259 197 198 196 241 263 193 228 198 224 234 207 193 205 201 207 204 200 197 200 200 200 200 204 203 203 208 211 213 218 226 230 234 234 234 234 231
157 163 294 352 230 235 189 226 267 179 200 213 172 245 217 192 200 222 209 211 203 202 200 202 199 196 197 196 197 200 200 202 202 202 207 208 214 220 224 231 235 235 236 233
165 196 265 242 265 289 318 278 236 224 221 234 146 247 207 210 213 223 215 206 207 204 203 202 198 193 190 193 194 197 199 199 200 203 203 207 213 216 219 227 234 235 235 232
173 95 312 299 299 72 129 323 319 288 312 214 222 238 267 237 250 237 232 222 207 207 203 206 195 192 196 194 192 194 195 198 198 197 199 203 206 208 216 222 230 234 233 232
108 152 210 250 29 21 302 301 322 16 271 253 232 229 198 262 247 255 254 237 200 200 198 197 192 196 194 192 188 188 192 195 194 194 197 199 201 209 215 220 226 231 232 233
108 244 247 261 270 275 268 275 287 268 245 232 251 219 233 220 231 247 217 283 263 227 192 197 197 193 193 185 185 186 190 191 191 192 196 200 203 208 214 218 226 229 232 234
179 243 276 276 255 249 262 262 262 258 252 246 260 265 327 317 334 355 3 311 261 233 222 204 201 189 185 186 182 183 186 188 188 191 196 199 201 206 213 218 221 227 227 234
175 209 253 258 293 315 274 237 228 93 32 305 237 269 310 349 41 15 348 341 311 298 225 207 195 186 185 185 179 183 181 180 186 191 196 197 200 204 209 212 214 222 225 228
181 195 249 274 293 178 167 132 89 99 51 21 1 351 317 135 147 43 13 350 339 325 274 197 191 185 188 182 181 169 173 179 186 191 192 195 197 202 205 208 212 218 222 225
162 136 268 253 230 283 170 27 39 56 44 16 355 352 340 280 247 10 360 359 339 323 296 205 181 183 174 170 169 164 169 176 180 187 191 195 198 198 202 207 210 216 218 223
134 155 246 267 248 201 54 343 332 120 39 357 356 355 347 60 64 333 343 353 351 347 3 24 132 145 152 154 160 159 167 174 184 191 194 195 197 200 203 210 210 215 217 221
157 186 223 232 259 260 344 318 238 77 13 333 339 345 350 60 142 311 342 14 16 20 23 37 63 82 145 158 159 161 168 187 190 186 191 198 204 206 212 211 213 213 216 218
162 195 164 199 221 223 351 337 70 80 5 322 324 332 350 1 5 10 22 20 20 20 26 32 49 54 79 146 157 155 173 189 191 192 197 204 209 207 209 213 211 211 213 215
71 26 11 257 334 323 308 341 76 28 286 326 306 324 342 3 8 355 16 21 25 26 27 31 44 53 51 65 98 84 95 158 182 194 202 212 210 209 208 206 207 204 208 212
3 32 7 327 348 349 314 82 22 351 317 313 303 305 355 3 360 359 7 21 25 26 29 30 39 41 39 42 55 57 73 96 134 167 196 212 210 212 211 211 210 208 209 213
338 304 315 245 2 6 221 349 345 331 308 306 304 347 10 0 2 1 3 11 16 27 29 34 35 37 31 36 43 48 55 74 83 96 113 134 168 204 218 217 214 215 221 221
352 359 6 342 330 293 276 300 311 308 296 299 327 349 7 5 345 350 6 5 17 22 32 34 31 30 22 24 28 29 34 43 56 60 65 77 97 180 206 207 216 226 229 228
Height
754 769 763 753 757 760 763 766 764 754 739 749 756 751 759 757 763 767 769 771 772 774 780 786 791 796 800 804 808 811 816 819 824 829 833 836 839 842 844 847 850 853 855 857
761 760 748 754 757 761 766 767 766 752 738 747 752 751 752 753 751 753 760 764 767 773 777 781 786 790 794 798 803 808 812 815 820 825 830 834 837 841 844 846 849 851 854 856
755 748 743 750 758 766 769 769 769 759 745 741 751 763 758 751 751 755 756 757 762 766 768 774 780 784 790 793 797 802 807 811 816 821 827 832 836 840 843 845 847 849 852 855
747 734 742 747 753 756 783 751 757 762 765 771 746 789 762 750 752 751 750 752 755 757 762 768 774 777 781 786 793 797 803 807 812 818 823 827 831 835 839 843 846 848 850 853
740 735 740 749 742 745 751 746 756 760 769 763 755 772 754 745 754 747 741 742 746 749 753 757 762 768 775 783 787 793 797 804 808 813 818 823 828 832 836 840 843 846 848 851
737 722 728 729 730 735 735 745 755 764 777 788 758 759 759 751 736 732 731 732 735 741 744 749 755 764 770 776 783 788 792 797 803 807 813 817 822 828 832 836 840 843 845 848
752 734 722 722 735 729 739 758 792 797 795 769 752 757 740 722 713 712 717 719 722 728 735 740 748 754 761 767 774 781 786 790 797 802 806 812 817 822 827 831 834 838 840 843
785 752 737 738 730 738 738 751 778 795 789 763 757 757 732 701 702 699 700 705 715 722 726 730 735 743 751 759 765 771 778 783 789 795 800 806 812 817 821 826 829 832 835 839
788 772 748 741 740 739 734 741 732 760 762 769 737 735 711 701 696 693 697 705 707 710 714 715 723 733 740 748 756 762 770 777 780 787 794 799 805 810 815 819 824 828 831 835
786 789 757 746 736 724 733 719 743 757 768 773 748 740 717 712 706 697 699 699 697 698 702 710 713 719 727 736 746 755 762 766 773 779 787 792 797 802 808 814 818 823 828 832
786 785 768 756 744 731 727 728 728 725 742 748 764 738 704 700 690 688 690 685 686 687 691 695 700 707 716 728 737 745 752 761 768 771 778 786 790 796 802 807 812 817 823 828
784 782 779 765 737 734 745 740 722 726 740 736 746 726 680 683 680 674 669 676 674 675 678 684 691 700 709 715 725 734 743 751 757 764 771 778 784 789 794 799 805 811 817 823
783 784 783 756 737 739 745 736 734 726 721 722 726 724 677 678 679 676 676 675 670 670 676 680 690 695 700 706 714 723 733 741 749 757 765 771 778 783 787 792 798 804 811 816
776 790 790 777 754 763 758 747 747 749 736 714 704 704 687 675 680 672 670 669 670 669 670 675 682 686 691 697 705 714 725 733 741 750 757 764 770 774 779 785 790 797 804 809
782 790 794 776 765 762 758 751 745 749 739 737 698 700 688 675 667 664 668 668 670 669 669 669 670 676 683 691 700 709 718 726 733 742 750 755 762 768 774 778 783 790 796 800
788 795 776 766 757 751 743 736 735 730 724 722 711 697 682 671 664 670 676 673 669 664 658 656 656 663 672 680 686 696 707 717 727 734 740 747 755 761 765 771 776 782 788 792
787 788 778 769 748 742 737 715 711 710 712 708 702 688 690 682 680 682 679 671 664 654 647 643 644 651 658 668 678 686 697 710 719 726 733 740 747 752 758 764 769 773 779 785
781 785 777 775 741 731 707 696 694 707 717 716 709 693 681 681 683 681 678 672 661 652 639 631 636 641 648 657 670 685 695 702 711 718 726 734 740 745 752 758 761 766 772 775
766 774 770 765 739 713 700 709 709 717 715 718 717 705 690 679 676 679 676 666 663 654 642 629 631 641 650 657 668 679 688 697 706 712 718 724 732 738 744 749 754 760 765 769
764 769 774 750 736 702 717 711 705 705 723 718 716 712 702 675 697 694 679 673 665 656 641 633 631 640 650 658 666 674 682 691 696 701 708 718 725 731 735 740 745 752 757 760
762 764 763 755 733 710 721 708 693 709 737 725 722 717 707 696 700 693 685 676 671 660 648 643 641 645 649 656 663 672 679 684 690 700 707 713 719 724 729 735 741 746 750 754
747 747 739 741 728 705 723 702 710 728 729 729 726 720 711 704 696 691 683 677 668 663 658 657 655 656 657 659 663 671 677 683 688 695 700 705 711 716 722 727 732 737 742 745
743 753 747 752 743 741 736 730 730 732 733 729 728 720 712 706 700 696 690 685 681 677 673 670 669 668 667 668 671 676 681 683 688 692 697 702 707 712 717 721 726 731 734 737
753 754 755 751 745 737 733 730 731 735 733 728 727 722 713 709 706 702 697 692 690 687 685 682 677 677 681 681 681 684 683 684 686 691 696 700 705 710 714 717 720 723 726 730
758 756 757 751 742 737 733 731 735 733 732 727 726 721 715 711 708 708 705 701 698 696 694 692 691 691 693 693 691 691 691 691 692 695 698 700 702 704 708 711 713 716 720 722
755 752 748 746 744 744 740 730 732 731 729 728 723 718 718 715 713 711 709 707 705 704 702 700 700 698 700 701 700 699 699 699 699 700 699 699 701 704 705 705 707 709 712 715